Location: *
(37.4917°N, 71.5558°E)
Time: 20:25:50
(UTC+00:00)

SAR-Lupe-4 - Pass Details

Date: 09 April 2020
Orbit: 481 x 485 km, 98.2° (Epoch: 13 May)

Event Time Altitude Azimuth Distance (km) Brightness Sun altitude
Exits shadow 22:58:05 46° 323° (NW) 655 4.1 -20.9°
Drops below altitude 10° 23:00:46 10° 342° (NNW) 1,665 6.4 -20.5°
Sets 23:02:50 0° 345° (NNW) 2,549 7.4 -20.1°
